Location: ???
(60.6398°N, 46.9067°E)
Time: 19:56:00
(UTC+00:00)

Okean 2 Rocket - Pass Details

Date: 08 December 2019
Orbit: 618 x 640 km, 82.5° (Epoch: 17 January)

Event Time Altitude Azimuth Distance (km) Brightness Sun altitude
Rises 14:19:04 0° 347° (NNW) 2,926 6.5 -16.7°
Reaches altitude 10° 14:21:32 10° 358° (N) 2,019 5.5 -17.0°
Enters shadow 14:24:37 28° 39° (NE) 1,204 4.1 -17.3°
